Regional Weather Roundup
Issued by NWS State College, PA

Home | Current Version | Previous Version | Text Only | Print | Product List | Glossary On
Versions: 1 2 3 4 5 6 7 8 9 10 11 12 13 14 15 16 17 18 19 20 21 22 23 24 25 26 27 28 29 30 31 32 33 34 35 36 37 38 39 40 41 42 43 44 45 46 47 48 49 50
000
ASUS41 KCTP 021210
RWRCTP

REGIONAL WEATHER ROUNDUP
NATIONAL WEATHER SERVICE STATE COLLEGE PA
800 AM EDT MON MAY 02 2016

Note: "fair" indicates few or no clouds below 12,000 feet with no
significant weather and/or obstructions to visibility.

* = STATION THAT DOES NOT REPORT PRECIPITATION /E.G. RAIN...SNOW...ETC/
    THUNDER OR FOG.

PAZ002>004-007>009-013>016-020>023-029>032-021300-
WESTERN PENNSYLVANIA

CITY           SKY/WX    TMP DP  RH WIND       PRES   REMARKS
ERIE           CLOUDY    44  43  96 NE20      29.88S FOG
MEADVILLE        N/A    N/A N/A N/A MISG      29.86F
FRANKLIN*      CLOUDY    48  45  87 CALM      29.90R
NEW CASTLE     CLOUDY    49  48  97 CALM      29.90S
BEAVER COUNTY  FOG       52  52 100 NW5       29.89R VSB 1
BUTLER*        CLOUDY    55  52  88 W8        29.92R
PITTSBURGH INT PTSUNNY   58  55  90 SW8       29.89R
PITTSBURGH     PTSUNNY   59  56  89 SW7       29.90R
INDIANA*       CLOUDY    59  59 100 SW8G14    29.92S
LATROBE        PTSUNNY   59  59 100 SW14      29.91R
WASHINGTON CO* CLOUDY    59  55  88 SW8       29.92R
$$

PAZ004>006-010>012-017>019-024>028-033>037-041-042-045-046-049>053-021300-
CENTRAL PENNSYLVANIA

CITY           SKY/WX    TMP DP  RH WIND       PRES   REMARKS
BRADFORD       LGT RAIN  50  48  93 CALM      29.86R
DUBOIS         CLOUDY    55  54  96 SW9       29.85S
CLEARFIELD     CLOUDY    52  50  93 CALM      29.87F
JOHNSTOWN      PTSUNNY   58  52  80 W12G20    29.91R
ALTOONA        CLOUDY    56  54  93 W3        29.91R
STATE COLLEGE  CLOUDY    50  50 100 S3        29.88F FOG
WILLIAMSPORT   LGT RAIN  50  47  89 E5        29.93S
SELINSGROVE    FOG       50  49  96 SE3       29.97R VSB 3/4
FT INDIANTOWN  FOG       48  48 100 NE2       29.99R VSB 1
CAPITAL CITY   LGT RAIN  53  50  89 E5        29.97S FOG
HARRISBURG     LGT RAIN  52  50  93 SE7       29.97R VSB 3/4
YORK           LGT RAIN  53  52  96 VRB3      29.98R FOG
$$

PAZ038>040-043-044-047-048-054-055-060>062-067>071-021300-
EASTERN PENNSYLVANIA

CITY           SKY/WX    TMP DP  RH WIND       PRES   REMARKS
SCRANTON       LGT RAIN  48  45  89 CALM      29.94R FOG
MOUNT POCONO   LGT RAIN  42  41  96 SE8       29.94R VSB<1/4
ALLENTOWN      CLOUDY    47  44  90 E5        29.98S FOG
QUAKERTOWN*    CLOUDY    45  45 100 SE3       29.99F VSB<1/4
READING        CLOUDY    48  46  93 S7        29.99R FOG
LANCASTER      FOG       49  49 100 SE3       29.99R VSB 1
COATESVILLE    LGT RAIN  46  46 100 E5        30.00R VSB<1/4
POTTSTOWN      CLOUDY    46  46 100 VRB3      30.00S FOG
BLUE BELL      CLOUDY    45  45 100 SE5       29.98F VSB 1/2
DOYLESTOWN     FOG       44  44 100 CALM      29.98F VSB 1/2
WILLOW GROVE   NOT AVBL
NORTH PHILA    CLOUDY    49  46  90 SE5       30.01S FOG
PHILADELPHIA   CLOUDY    49  45  86 E6        30.00F
$$




USA.gov is the U.S. government's official web portal to all federal, state and local government web resources and services.